Theta_e
313 313 313 313 313 314 316 316 316 317 318 320 320 320 320 321 320 310 303 310 313 320 321 308 308 309 311 305 306 308 300 299 296 294 296 302 300 305 307 305 308 312 316 326 335
312 312 313 312 313 315 316 317 317 317 318 318 319 320 320 321 311 306 314 317 317 318 305 302 302 307 303 305 304 300 296 299 301 299 298 301 301 302 302 302 305 310 316 326 334
311 311 312 312 313 315 316 316 317 317 317 317 319 319 319 319 307 303 316 315 315 314 307 304 304 303 300 301 304 300 295 298 301 305 304 303 303 304 301 300 304 303 306 310 325
310 310 311 311 312 315 316 316 316 318 319 320 320 319 317 315 295 302 314 316 314 309 305 302 301 298 299 301 302 299 301 299 300 304 301 302 304 301 303 303 306 307 308 308 308
309 310 310 310 311 314 315 316 316 318 319 319 319 316 310 297 295 303 312 311 307 306 302 301 298 298 295 296 299 298 300 301 302 301 301 302 301 303 303 304 306 306 306 307 308
308 309 309 310 310 312 313 315 316 316 317 318 316 313 301 290 301 303 304 306 305 304 303 302 299 300 297 296 295 296 296 297 298 298 299 297 299 299 300 303 303 303 304 305 306
308 308 308 309 309 311 312 314 315 316 314 315 313 305 296 292 302 302 303 305 306 304 301 303 302 299 298 295 297 296 293 297 297 297 296 299 295 295 299 301 302 303 303 304 305
307 308 308 308 308 309 311 312 314 315 313 313 312 302 293 302 304 299 301 302 305 306 303 304 304 300 297 299 296 293 293 291 295 297 297 297 291 298 301 299 298 300 304 303 304
307 307 307 308 307 307 309 313 313 314 313 308 301 299 290 304 296 298 299 297 302 305 306 305 303 297 298 295 292 293 289 289 291 296 295 294 290 296 299 298 296 298 299 300 300
306 306 306 306 306 306 306 308 310 310 305 302 297 294 293 291 296 295 298 300 299 301 300 299 297 292 291 289 283 284 285 286 286 291 292 290 290 293 297 296 295 295 296 297 298
306 305 305 305 305 306 308 306 301 297 297 289 289 289 291 294 297 293 295 299 302 299 291 293 288 285 286 289 289 287 285 285 287 291 288 288 289 291 293 294 293 293 294 295 296
305 304 304 304 302 305 305 297 294 297 289 293 292 291 292 294 288 290 295 293 293 287 292 289 284 288 288 286 288 286 284 283 286 287 287 288 288 291 292 291 292 292 293 293 295
304 303 303 301 299 302 297 294 299 299 291 289 291 289 289 292 286 286 289 291 289 287 287 284 285 289 284 281 280 284 283 279 278 282 287 286 286 289 291 290 290 291 292 292 291
303 301 302 300 299 297 294 297 301 301 288 284 286 287 290 291 284 291 290 288 288 282 285 286 287 283 283 279 281 279 283 281 280 279 278 286 278 286 287 286 287 288 289 289 290
303 300 299 302 296 293 293 298 302 298 282 285 285 292 290 284 284 287 290 289 283 283 287 282 282 279 279 278 282 280 282 282 282 281 281 282 280 282 284 282 284 286 287 288 289
302 299 298 296 296 292 296 300 297 287 277 281 285 283 284 284 283 287 285 288 285 283 283 283 286 281 280 282 283 283 283 283 285 283 278 279 279 279 278 280 282 284 285 286 288
300 298 294 294 290 294 298 296 287 281 283 279 279 282 282 279 280 282 281 278 276 276 276 280 279 281 282 279 283 281 280 276 275 275 273 281 276 277 280 281 282 282 283 285 287
298 297 293 293 295 296 296 295 281 275 278 282 280 281 278 278 279 280 280 277 278 277 276 274 274 277 280 278 276 277 278 273 266 269 271 277 273 277 281 283 284 284 284 285 286
295 298 296 295 294 296 296 284 280 279 280 278 281 278 278 278 278 279 277 276 276 277 273 272 273 278 279 280 281 277 275 279 273 274 271 275 278 281 282 282 282 282 282 283 284
295 295 293 295 295 298 289 280 279 282 279 280 276 278 275 275 276 276 276 277 275 278 279 275 270 276 277 280 280 278 278 273 274 266 265 272 273 275 278 279 281 280 281 282 284
295 294 295 295 297 292 283 280 280 281 280 278 276 275 276 274 275 273 274 277 278 277 278 276 272 274 277 274 273 275 273 273 272 271 267 266 271 280 278 278 278 280 282 282 283
295 290 295 296 288 285 281 280 281 279 281 279 280 278 276 275 273 272 272 277 279 278 273 276 273 269 272 276 277 276 272 272 268 267 270 268 268 281 279 280 280 280 282 283 284
290 290 296 295 284 281 278 278 280 278 278 278 277 278 278 275 272 273 274 279 280 278 274 277 272 267 270 273 275 272 274 273 273 271 266 265 269 280 281 280 281 280 282 283 283
291 285 290 289 285 282 278 277 276 280 279 279 278 278 276 274 276 272 273 277 279 279 279 279 273 270 268 271 273 270 272 274 271 266 267 269 271 276 278 278 279 281 282 282 283
288 282 281 284 282 281 281 278 276 275 279 280 277 277 276 271 273 272 274 276 279 280 279 277 270 272 272 273 273 272 271 272 270 271 267 270 271 274 277 278 279 281 281 281 282
286 285 284 280 281 280 278 276 276 277 277 275 276 278 278 273 275 271 275 275 275 278 276 277 270 269 267 271 271 269 271 272 272 272 272 273 272 278 280 281 279 280 280 280 282
289 287 289 281 280 279 281 279 278 279 280 280 279 278 276 278 280 281 281 280 279 276 275 274 272 269 266 268 265 264 269 271 272 274 273 270 275 278 277 278 278 280 280 280 282
Wind_Speed
19 19 19 19 18 17 16 14 13 13 13 10 8 8 10 9 8 17 18 15 12 15 11 4 4 9 11 8 7 6 6 8 6 3 2 11 11 12 13 6 8 5 8 9 4
20 20 19 19 19 18 16 13 12 12 14 13 8 5 6 9 4 19 17 23 18 11 6 6 1 4 3 6 8 4 3 9 6 2 4 8 12 13 10 13 7 10 8 8 5
20 20 20 19 19 18 16 12 13 14 13 11 9 5 4 6 4 11 26 26 20 14 5 5 1 3 3 1 3 7 5 10 7 11 9 8 9 12 12 9 15 15 13 12 5
20 21 21 21 20 18 15 14 13 13 13 13 7 5 3 8 3 18 25 21 18 11 4 2 4 4 3 4 4 4 8 4 8 7 7 11 12 10 11 14 18 16 12 13 13
20 20 21 21 21 19 16 15 14 12 14 15 11 6 2 11 10 22 20 17 10 9 7 5 4 3 4 1 8 10 7 8 11 8 12 10 10 12 14 10 13 11 12 13 12
20 20 21 21 22 19 17 15 14 12 11 15 15 11 13 18 14 21 20 11 14 12 8 7 6 6 3 2 4 4 4 8 7 9 7 12 12 3 12 16 15 13 15 13 14
19 20 20 20 23 20 16 13 13 12 10 7 7 2 26 11 16 21 20 9 12 9 8 8 6 5 7 1 4 3 5 6 4 9 5 14 6 1 10 17 18 21 17 17 16
20 20 20 18 20 18 12 10 6 12 16 7 9 9 10 11 16 25 24 13 14 7 4 6 4 4 6 6 2 3 3 2 7 13 10 12 4 13 18 14 14 14 17 18 20
20 19 19 19 22 15 8 12 7 8 10 18 8 4 6 13 25 24 23 14 11 5 10 5 3 8 9 3 3 7 4 7 6 11 14 12 10 16 15 14 15 17 18 17 19
20 19 19 18 23 14 5 3 21 9 7 2 16 3 11 16 17 24 28 14 4 3 4 10 5 12 14 13 5 10 8 9 11 13 15 10 12 15 17 17 17 17 18 19 20
19 19 18 15 22 16 2 3 4 8 21 16 10 7 11 19 5 26 30 11 8 10 8 17 14 14 16 12 7 7 9 11 15 10 15 12 11 12 16 18 19 18 19 20 21
20 20 17 10 14 15 7 6 5 4 14 13 10 11 8 14 11 30 28 13 16 19 2 6 18 12 10 15 7 8 9 10 7 16 14 12 6 14 15 17 19 20 20 21 22
21 21 19 3 3 8 13 8 5 4 2 8 12 9 8 11 11 23 22 12 11 14 17 16 12 8 12 16 15 7 10 15 15 17 10 11 13 8 11 18 18 19 19 20 22
21 22 19 3 1 4 6 7 3 3 3 14 13 11 13 4 5 17 15 6 5 11 8 10 12 13 9 13 15 6 16 17 17 12 4 9 3 8 10 13 19 20 20 21 22
18 22 13 19 4 5 5 5 1 4 3 12 7 7 8 11 11 21 15 7 12 12 6 7 12 15 12 12 13 7 23 17 12 7 4 5 5 4 9 13 20 19 19 20 20
14 20 13 4 5 4 5 2 3 4 5 4 6 12 7 15 9 14 15 7 2 5 12 7 6 7 10 13 5 21 16 7 1 2 4 5 6 4 7 11 15 18 20 20 20
11 10 10 4 4 8 4 4 5 7 1 8 6 9 6 11 10 12 12 20 12 7 10 7 9 3 16 12 4 20 16 4 2 2 3 3 9 7 7 10 14 17 20 19 19
7 7 3 9 6 4 3 0 9 1 2 3 4 6 6 12 7 11 5 9 15 11 4 8 0 13 11 10 10 10 8 5 6 6 12 13 6 6 6 7 11 14 17 19 19
7 1 2 10 6 3 2 8 2 2 1 5 3 2 4 5 5 6 8 6 9 13 7 8 3 4 7 7 10 6 5 6 5 5 6 4 6 7 3 3 10 15 19 19 18
2 1 5 14 6 3 7 5 2 1 1 1 3 4 4 6 6 6 4 3 2 7 5 5 7 3 5 3 4 5 6 1 0 6 7 6 11 7 1 11 18 21 20 18 17
2 0 6 12 4 8 6 4 3 3 1 2 1 1 2 3 4 3 4 3 2 4 3 3 2 2 4 4 5 2 3 3 3 4 6 8 4 3 10 14 18 18 19 17 18
2 1 8 8 6 3 3 4 2 5 2 1 1 1 1 1 2 2 2 1 2 2 3 3 3 5 7 8 4 2 0 3 2 2 7 11 12 11 3 13 15 16 16 14 15
3 2 4 5 4 3 2 3 2 4 4 4 4 2 2 1 2 3 1 1 3 2 2 4 2 6 4 5 5 4 4 5 5 4 13 9 8 9 10 15 16 17 16 14 15
2 2 4 5 3 6 5 4 4 3 3 3 2 4 3 3 4 1 3 2 4 5 3 3 5 8 8 10 13 15 16 14 10 8 15 18 23 26 19 20 20 18 18 18 15
4 2 2 2 2 5 3 7 5 5 5 6 4 9 7 4 4 3 4 5 7 10 4 4 7 9 14 19 20 20 22 21 20 22 20 27 22 27 23 22 21 16 17 18 16
2 3 1 3 4 5 2 8 9 5 8 5 8 8 11 5 7 5 5 5 7 4 4 5 7 2 8 18 19 19 22 24 26 28 26 25 29 23 21 16 18 17 14 16 17
1 1 1 5 4 4 4 6 12 8 9 5 10 7 10 12 10 8 8 10 10 8 5 5 4 5 8 3 6 12 16 17 17 19 18 21 21 18 19 18 16 10 15 18 15
Wind_Direction
10 6 2 0 358 357 357 358 356 356 357 350 337 320 317 316 277 55 36 344 327 319 306 236 21 345 349 356 330 321 245 230 227 221 63 12 352 353 332 292 329 333 338 354 50
6 2 360 0 357 358 359 359 358 353 349 351 348 328 298 309 315 44 8 350 342 329 286 222 128 77 50 358 341 336 310 326 83 49 -0 331 342 337 339 333 356 13 49 20 98
5 360 359 359 358 1 358 360 356 354 353 344 342 337 260 257 265 1 354 340 333 317 280 283 226 178 119 189 20 353 312 351 317 4 345 339 330 338 326 321 341 342 335 352 350
6 359 358 358 359 4 7 3 8 6 0 356 349 333 221 213 12 346 340 330 324 317 289 278 216 224 207 191 163 170 261 265 294 294 301 308 310 307 305 323 327 322 321 322 307
5 0 359 0 2 6 7 5 8 10 5 6 5 314 196 63 11 336 334 334 336 350 11 349 277 293 275 272 176 230 207 228 267 280 282 288 286 295 305 345 354 4 360 348 342
6 -0 359 357 2 2 1 0 1 18 16 7 10 37 73 59 342 351 344 356 1 355 17 20 10 338 334 320 271 359 310 285 292 288 288 310 308 359 47 14 355 5 2 358 357
6 1 358 357 358 354 352 354 6 359 23 42 347 316 58 38 350 359 358 6 5 357 359 19 355 12 331 258 354 296 287 281 24 4 28 343 276 99 57 355 334 0 359 350 348
6 2 355 357 357 347 354 2 26 17 34 18 15 60 75 16 357 8 357 357 353 32 11 4 347 41 17 305 233 311 246 290 46 10 29 359 306 351 353 353 360 348 346 1 10
5 2 358 356 3 356 346 25 73 25 12 26 29 34 24 332 4 1 2 342 337 28 47 39 62 42 13 326 173 43 343 352 342 42 7 6 326 345 334 355 22 18 13 8 8
3 2 357 357 4 6 344 356 73 38 347 271 22 135 28 349 340 355 354 318 8 323 50 37 42 41 31 19 29 335 336 332 338 352 351 340 343 341 45 50 40 31 25 17 15
3 0 356 357 8 13 329 267 229 43 47 64 31 36 347 340 314 4 349 344 52 59 68 42 64 41 21 13 355 334 325 335 338 2 343 341 337 64 50 48 40 36 27 22 13
1 357 359 352 19 19 45 60 30 49 83 52 35 40 28 331 360 6 359 31 33 43 30 118 47 22 19 17 17 15 16 2 322 346 330 334 345 88 62 47 34 23 20 15 10
359 358 359 7 352 38 67 46 329 316 88 43 42 17 350 341 35 4 0 337 11 36 48 63 20 357 17 23 5 5 5 339 311 323 301 356 136 111 69 50 34 26 20 13 8
357 0 357 277 82 -0 52 351 344 314 94 6 7 29 349 325 64 14 7 352 48 20 11 50 20 8 13 21 357 335 356 322 316 335 337 338 280 69 28 28 26 23 17 12 7
353 2 358 23 90 49 348 333 346 242 55 355 7 307 18 51 327 4 12 4 36 16 288 57 15 10 18 357 343 329 318 304 304 298 314 37 258 44 39 12 15 16 18 14 9
354 2 352 32 65 20 318 251 241 46 50 15 358 359 22 29 25 354 21 41 3 3 59 64 37 28 355 313 326 330 318 308 220 182 233 160 360 60 32 11 4 7 8 7 5
357 13 31 2 9 335 302 223 38 55 310 349 343 349 14 14 23 14 33 43 28 351 13 332 41 50 6 350 349 356 353 353 275 277 311 27 320 69 59 28 17 7 0 1 1
350 348 7 48 335 307 236 35 63 108 349 15 327 327 41 6 40 16 38 35 28 11 345 359 302 19 5 22 327 339 347 14 311 320 308 300 256 120 116 34 9 1 354 351 353
315 276 26 353 343 284 287 53 76 163 6 339 281 1 49 38 3 1 47 46 26 12 22 349 3 18 25 351 350 350 30 346 287 228 267 234 115 170 199 350 349 353 350 347 345
331 318 33 341 335 273 65 101 123 44 326 278 30 9 338 8 7 18 39 30 54 20 347 33 289 67 332 277 79 34 5 241 80 299 294 284 293 309 309 328 341 341 340 333 337
307 320 11 345 293 49 70 84 145 139 273 334 62 348 35 350 358 8 2 121 24 29 9 9 329 16 279 32 334 329 51 21 277 266 292 310 278 136 354 358 339 338 337 330 329
326 22 4 323 48 41 78 129 128 153 178 211 239 194 263 6 322 321 329 40 122 3 9 61 304 278 298 339 253 280 45 15 295 259 280 283 276 277 71 352 338 339 340 329 331
42 340 2 316 101 98 125 124 194 160 209 189 197 213 191 214 272 262 267 64 174 290 50 9 212 297 185 162 170 243 233 298 319 274 245 269 275 185 306 327 325 325 325 325 323
19 12 12 43 28 127 146 162 181 203 197 214 189 174 168 222 202 271 240 253 232 201 284 200 249 243 272 305 315 288 279 272 239 257 264 241 268 284 296 322 315 313 316 313 312
11 82 17 61 84 119 152 155 159 190 221 205 217 211 188 182 219 217 248 265 234 241 234 255 259 264 263 275 282 282 280 276 261 256 248 266 280 276 296 301 296 295 315 321 309
92 146 131 106 127 140 164 202 192 185 177 215 229 209 201 193 205 190 217 237 265 199 204 195 271 326 273 264 271 283 277 271 264 263 261 261 267 278 287 293 307 308 327 310 309
106 104 244 147 166 201 211 189 202 180 211 227 215 223 220 231 245 258 262 254 247 246 242 243 264 274 271 356 314 266 252 250 252 257 251 253 262 290 295 297 305 324 316 303 307